This is the latest recevied weather packets stored in our database for station/object LA6LOA. If no packets are shown the sender has not sent any weather packets the latest 1 day(s).
| Time | Temp. | Humidity | Pressure | Rain* | Wind** | Luminosity | Snow |
|---|---|---|---|---|---|---|---|
| 1778033462 | 2.78° C | 100% | 1002.7 hPa | 0 mm | - | - | - |
| 1778033162 | 1.67° C | 100% | 1002.7 hPa | 0 mm | - | - | - |
| 1778032562 | 1.11° C | 100% | 1002.6 hPa | 0 mm | - | - | - |
| 1778031962 | 1.11° C | 100% | 1002.5 hPa | 0 mm | - | - | - |
| 1778031662 | 1.11° C | 100% | 1002.4 hPa | 0 mm | - | - | - |
| 1778030762 | 1.11° C | 100% | 1002.3 hPa | 0 mm | - | - | - |
| 1778029862 | 1.11° C | 100% | 1002.3 hPa | 0 mm | - | - | - |
| 1778029562 | 1.11° C | 100% | 1002.4 hPa | 0 mm | - | - | - |
| 1778028962 | 0.56° C | 100% | 1002.3 hPa | 0 mm | - | - | - |
| 1778028662 | 0° C | 100% | 1002.3 hPa | 0 mm | - | - | - |
| 1778028062 | 0° C | 100% | 1002.2 hPa | 0 mm | - | - | - |
| 1778023263 | 1.11° C | 100% | 1002.1 hPa | 0 mm | - | - | - |
| 1778022963 | 1.67° C | 100% | 1002.1 hPa | 0 mm | - | - | - |
| 1778022663 | 1.67° C | 100% | 1002.1 hPa | 0 mm | - | - | - |
| 1778022063 | 2.22° C | 100% | 1002 hPa | 0 mm | - | - | - |
| 1778021763 | 2.22° C | 100% | 1002.1 hPa | 0 mm | - | - | - |
| 1778021163 | 2.22° C | 100% | 1002 hPa | 0 mm | - | - | - |
| 1778020563 | 2.22° C | 100% | 1002 hPa | 0 mm | - | - | - |
| 1778019963 | 2.22° C | 100% | 1002 hPa | 0 mm | - | - | - |
| 1778019663 | 2.22° C | 100% | 1001.9 hPa | 0 mm | - | - | - |
| 1778006464 | 5° C | 100% | 1001.7 hPa | 0 mm | - | - | - |
| 1778006164 | 5° C | 100% | 1001.8 hPa | 0 mm | - | - | - |
| 1778005864 | 5.56° C | 100% | 1001.7 hPa | 0 mm | - | - | - |
| 1778005564 | 5.56° C | 100% | 1001.7 hPa | 0 mm | - | - | - |
| 1778005264 | 5.56° C | 100% | 1001.6 hPa | 0 mm | - | - | - |
* Rain latest hour (hover to see other rain measurements)
** Current wind speed in m/s (hover to see current wind gust speed)